Mayfld Grav Cnty AP, Mayfield, KY

5:18 AM CST on December 13, 2019 (GMT -0600)
Mayfld Grav Cnty AP, Mayfield

Weather History for KM25 - August, 2019

Change the Weather History Date:

Saturday, August 3, 2019

  Actual Average (KPAH) Record (KPAH)
Temperature  
Mean Temperature 78 °F 78 °F  
Max Temperature 87 °F 89 °F 104 °F (1947)
Min Temperature 69 °F 68 °F 55 °F (1950)
Degree Days  
Heating Degree Days 0 0  
Month to date heating degree days 0  
Since 1 June heating degree days 4  
Since 1 July heating degree days 0  
Cooling Degree Days 13 13  
Month to date cooling degree days 40  
Year to date cooling degree days 963  
Since 1 June cooling degree days 791  
Growing Degree Days 28 (Base 50)    
Moisture  
Dew Point 71 °F    
Average Humidity 85    
Maximum Humidity 100    
Minimum Humidity 58    
Precipitation  
Precipitation 0.57 in 0.10 in 1.89 in (1984)
Month to date precipitation 0.32  
Year to date precipitation 30.04  
Snow  
Snow 0.00 in 0.00 in 0.00 in (2002)
Month to date snowfall 0.0  
Since 1 June snowfall 0.0  
Since 1 July snowfall 0.0  
Snow Depth -    
Sea Level Pressure  
Sea Level Pressure 30.00 in    
Wind  
Wind Speed 2 mph (ENE)    
Max Wind Speed 15 mph    
Max Gust Speed -    
Visibility 10 miles    
Events      
T = Trace of Precipitation, MM = Missing Value Source: NWS Daily Summary

Daily Weather History Graph

Daily Weather History Graph

Search for Another Location

Airport or City:

Astronomy

Aug. 03, 2019 Rise Set
Actual Time 6:01 AM CDT 7:59 PM CDT
Civil Twilight 5:33 AM CDT 8:27 PM CDT
Nautical Twilight 4:58 AM CDT 9:01 PM CDT
Astronomical Twilight 4:21 AM CDT 9:38 PM CDT
Moon 8:50 AM CDT (8/3) 10:08 PM CDT (8/3)
Length of Visible Light 14h 54m
Length of Day
13h 57m
Waxing Crescent, 10% of the Moon is Illuminated
Aug 3
Waxing Crescent
Aug 7
First Quarter
Aug 15
Full
Aug 23
Last Quarter
Aug 30
New

Hourly Weather History & Observations

Time (CDT) Temp. Heat Index Dew Point Humidity Pressure Visibility Wind Dir Wind Speed Gust Speed Precip Events Conditions
12:35 AM 73.4 °F - 69.8 °F 88% 30.03 in 10.0 mi Calm Calm - N/A   Scattered Clouds
12:55 AM 73.4 °F - 69.8 °F 88% 30.02 in 10.0 mi Calm Calm - N/A   Scattered Clouds
1:15 AM 71.6 °F - 69.8 °F 94% 30.01 in 10.0 mi Calm Calm - N/A   Scattered Clouds
1:35 AM 71.6 °F - 69.8 °F 94% 30.01 in 10.0 mi Calm Calm - N/A   Clear
1:55 AM 71.6 °F - 69.8 °F 94% 30.01 in 10.0 mi Calm Calm - N/A   Clear
2:15 AM 71.6 °F - 69.8 °F 94% 30.00 in 10.0 mi NNE 3.5 mph - N/A   Scattered Clouds
2:35 AM 71.6 °F - 69.8 °F 94% 30.00 in 10.0 mi NE 4.6 mph - N/A   Scattered Clouds
2:55 AM 71.6 °F - 69.8 °F 94% 30.00 in 10.0 mi NE 3.5 mph - N/A   Clear
3:15 AM 69.8 °F - 69.8 °F 100% 30.00 in 10.0 mi ENE 3.5 mph - N/A   Clear
3:35 AM 69.8 °F - 69.8 °F 100% 29.99 in 10.0 mi ENE 4.6 mph - N/A   Clear
3:55 AM 69.8 °F - 69.8 °F 100% 30.00 in 10.0 mi ENE 5.8 mph - N/A   Clear
4:15 AM 69.8 °F - 69.8 °F 100% 29.99 in 10.0 mi NE 3.5 mph - N/A   Clear
4:55 AM 69.8 °F - 69.8 °F 100% 29.99 in 10.0 mi ENE 4.6 mph - N/A   Clear
5:15 AM 69.8 °F - 69.8 °F 100% 30.00 in 7.0 mi ENE 4.6 mph - N/A   Clear
5:35 AM 69.8 °F - 69.8 °F 100% 30.00 in 7.0 mi ENE 3.5 mph - N/A   Clear
5:55 AM 69.8 °F - 69.8 °F 100% 30.01 in 7.0 mi ENE 3.5 mph - N/A   Clear
6:15 AM 69.8 °F - 69.8 °F 100% 30.01 in 7.0 mi ENE 3.5 mph - N/A   Clear
6:55 AM 69.8 °F - 69.8 °F 100% 30.02 in 7.0 mi Calm Calm - N/A   Clear
7:15 AM 71.6 °F - 69.8 °F 94% 30.02 in 10.0 mi Calm Calm - N/A   Clear
7:35 AM 73.4 °F - 69.8 °F 88% 30.03 in 10.0 mi East 3.5 mph - N/A   Clear
7:55 AM 73.4 °F - 69.8 °F 88% 30.03 in 10.0 mi East 4.6 mph - N/A   Clear
8:15 AM 75.2 °F - 69.8 °F 83% 30.03 in 10.0 mi ESE 3.5 mph - N/A   Clear
8:35 AM 77.0 °F - 71.6 °F 83% 30.03 in 10.0 mi SE 4.6 mph - N/A   Clear
8:55 AM 78.8 °F - 71.6 °F 78% 30.03 in 10.0 mi ESE 3.5 mph - N/A   Clear
9:15 AM 78.8 °F - 71.6 °F 78% 30.03 in 10.0 mi ESE 3.5 mph - N/A   Clear
9:35 AM 80.6 °F 84.6 °F 71.6 °F 74% 30.03 in 10.0 mi SE 3.5 mph - N/A   Clear
9:55 AM 82.4 °F 87.2 °F 71.6 °F 70% 30.03 in 10.0 mi Calm Calm - N/A   Clear
10:15 AM 82.4 °F 87.2 °F 71.6 °F 70% 30.03 in 10.0 mi Calm Calm - N/A   Clear
10:35 AM 82.4 °F 88.2 °F 73.4 °F 74% 30.03 in 10.0 mi Calm Calm - N/A   Scattered Clouds
10:55 AM 82.4 °F 88.2 °F 73.4 °F 74% 30.03 in 10.0 mi East 3.5 mph - N/A   Scattered Clouds
11:15 AM 82.4 °F 88.2 °F 73.4 °F 74% 30.03 in 10.0 mi Calm Calm - N/A   Mostly Cloudy
11:35 AM 86.0 °F 93.4 °F 73.4 °F 66% 30.02 in 10.0 mi Calm Calm - N/A   Overcast
11:55 AM 86.0 °F 93.4 °F 73.4 °F 66% 30.02 in 10.0 mi Calm Calm - N/A   Mostly Cloudy
12:15 PM 84.2 °F 90.9 °F 73.4 °F 70% 30.02 in 10.0 mi Calm Calm - N/A   Overcast
12:35 PM 82.4 °F 88.2 °F 73.4 °F 74% 30.01 in 10.0 mi NW 4.6 mph - N/A   Overcast
12:55 PM 86.0 °F 91.8 °F 71.6 °F 62% 30.01 in 10.0 mi Calm Calm - N/A   Scattered Clouds
1:15 PM 84.2 °F 89.6 °F 71.6 °F 66% 30.00 in 10.0 mi Calm Calm - N/A   Mostly Cloudy
1:35 PM 86.0 °F 91.8 °F 71.6 °F 62% 30.00 in 10.0 mi Calm Calm - N/A   Scattered Clouds
1:55 PM 87.8 °F 93.8 °F 71.6 °F 58% 29.99 in 10.0 mi Calm Calm - N/A   Clear
2:15 PM 87.8 °F 93.8 °F 71.6 °F 58% 29.98 in 10.0 mi Calm Calm - N/A   Mostly Cloudy
2:35 PM 87.8 °F 93.8 °F 71.6 °F 58% 29.98 in 10.0 mi Calm Calm - N/A   Mostly Cloudy
2:55 PM 86.0 °F 91.8 °F 71.6 °F 62% 29.98 in 10.0 mi NE 4.6 mph - N/A   Mostly Cloudy
3:15 PM 80.6 °F 85.4 °F 73.4 °F 79% 29.98 in 0.8 mi NNE 15.0 mph - 0.16 in   Overcast
3:35 PM 75.2 °F - 71.6 °F 89% 29.97 in 3.0 mi East 6.9 mph - 0.57 in   Mostly Cloudy
3:55 PM 77.0 °F - 73.4 °F 89% 29.98 in 7.0 mi NNE 5.8 mph - 0.57 in   Overcast
4:15 PM 77.0 °F - 71.6 °F 83% 29.98 in 10.0 mi North 5.8 mph - N/A   Overcast
4:35 PM 75.2 °F - 69.8 °F 83% 29.97 in 10.0 mi NNW 5.8 mph - N/A   Overcast
4:55 PM 75.2 °F - 71.6 °F 89% 29.97 in 10.0 mi Calm Calm - N/A   Overcast
5:15 PM 77.0 °F - 71.6 °F 83% 29.99 in 10.0 mi East 6.9 mph - N/A   Mostly Cloudy
5:35 PM 78.8 °F - 71.6 °F 78% 29.99 in 10.0 mi South 3.5 mph - N/A   Scattered Clouds
5:55 PM 78.8 °F - 71.6 °F 78% 29.98 in 10.0 mi ENE 8.1 mph - N/A   Scattered Clouds
6:15 PM 77.0 °F - 69.8 °F 78% 29.98 in 10.0 mi ENE 3.5 mph - N/A   Clear
6:35 PM 77.0 °F - 69.8 °F 78% 29.98 in 10.0 mi NNE 4.6 mph - N/A   Clear
6:55 PM 75.2 °F - 69.8 °F 83% 29.97 in 10.0 mi North 3.5 mph - N/A   Clear
7:15 PM 73.4 °F - 69.8 °F 88% 29.97 in 10.0 mi NNE 3.5 mph - N/A   Clear
7:35 PM 73.4 °F - 69.8 °F 88% 29.98 in 10.0 mi Calm Calm - N/A   Clear
7:55 PM 73.4 °F - 69.8 °F 88% 29.98 in 10.0 mi NNE 4.6 mph - N/A   Scattered Clouds
8:15 PM 71.6 °F - 69.8 °F 94% 29.99 in 10.0 mi East 3.5 mph - N/A   Scattered Clouds
8:35 PM 71.6 °F - 69.8 °F 94% 29.98 in 10.0 mi SE 4.6 mph - N/A   Clear
8:55 PM 71.6 °F - 69.8 °F 94% 29.99 in 10.0 mi North 4.6 mph - N/A   Clear
9:15 PM 71.6 °F - 69.8 °F 94% 29.99 in 10.0 mi Calm Calm - N/A   Clear
9:35 PM 71.6 °F - 69.8 °F 94% 29.99 in 10.0 mi ENE 4.6 mph - N/A   Scattered Clouds
9:55 PM 71.6 °F - 69.8 °F 94% 30.00 in 10.0 mi ENE 4.6 mph - N/A   Clear
10:15 PM 71.6 °F - 69.8 °F 94% 30.00 in 10.0 mi ESE 4.6 mph - N/A   Scattered Clouds
10:35 PM 71.6 °F - 69.8 °F 94% 30.01 in 10.0 mi NE 3.5 mph - N/A   Scattered Clouds
10:55 PM 71.6 °F - 69.8 °F 94% 30.01 in 10.0 mi NE 4.6 mph - N/A   Clear
11:15 PM 71.6 °F - 69.8 °F 94% 30.01 in 10.0 mi Calm Calm - N/A   Clear
11:35 PM 71.6 °F - 69.8 °F 94% 30.01 in 10.0 mi Calm Calm - N/A   Clear
11:55 PM 69.8 °F - 69.8 °F 100% 30.01 in 10.0 mi Calm Calm - N/A   Scattered Clouds